Location: Eindhoven
(51.4416°N, 5.4697°E)
Time: 06:03:11
(UTC+01:00)

Tiros 1 - Pass Details

Date: 18 November 2019
Orbit: 630 x 664 km, 48.4° (Epoch: 14 December)

Event Time Altitude Azimuth Distance (km) Brightness Sun altitude
Rises 20:57:29 0° 278° (W) 2,932 11.4 -38.7°
Reaches altitude 10° 21:00:17 10° 262° (W) 2,026 10.3 -39.1°
Enters shadow 21:00:23 10° 261° (W) 2,001 10.2 -39.1°
